Weather Roundup
Issued by NWS

Home | Current Version | Previous Version | Text Only | Print | Product List | Glossary On
Versions: 1 2 3 4 5 6 7 8 9 10 11 12 13 14 15 16 17 18 19 20 21 22 23 24 25 26 27 28 29 30 31 32 33 34 35 36 37 38 39 40 41 42 43 44 45 46 47 48 49 50
000
NZUS93 KARX 040059
HRRWXR

CURRENT HOURLY OBSERVATIONS ACROSS
MUCH OF THE UPPER MISSISSIPPI VALLEY
NATIONAL WEATHER SERVICE LA CROSSE WI
800 PM CDT FRI JUL 03 2015


...SOUTHEAST MINNESOTA...


CITY           SKY/WX    TMP DP  RH WIND       PRES   REMARKS
ROCHESTER      PTCLDY    71  56  58 W6        29.94F
ROCHESTER/MAYO FAIR      74  53  48 W6        29.93S
WINONA         CLEAR     73  57  56 CALM      29.92S
AUSTIN         PTCLDY    73  54  49 W3        29.94S
ALBERT LEA     PTCLDY    73  54  49 CALM      29.94S
DODGE CENTER   PTCLDY    70  57  64 W3        29.94S
PRESTON        PTCLDY    71  59  65 W3        29.95R
OWATONNA       PTCLDY    72  57  60 SW3       29.93F
FARIBAULT      PTCLDY    72  61  68 CALM      29.93S
$$

...ELSEWHERE IN MINNESOTA...


CITY           SKY/WX    TMP DP  RH WIND       PRES   REMARKS
MINNEAPOLIS    PTCLDY    77  58  51 SW7       29.90S
INTNL FALLS    SUNNY     76  54  46 NE3       29.90R
DULUTH         PTCLDY    75  58  55 N6        29.88S SMOKE
RED WING       CLEAR     75  55  50 W3        29.90R
REDWOOD FALLS  PTCLDY    78  62  57 CALM      29.91S
MANKATO        PTCLDY    75  57  53 SW3       29.92F
WORTHINGTON    PTCLDY    73  59  60 SW7       29.96S
FAIRMONT       PTCLDY    75  54  46 CALM      29.94S
$$

...SOUTHWEST WISCONSIN...


CITY           SKY/WX    TMP DP  RH WIND       PRES   REMARKS
LA CROSSE      CLEAR     74  60  61 SW5       29.91R
PRAIRIE DU CHI CLEAR     73  57  58 SW3       29.92S
BOSCOBEL       CLEAR     73  60  63 CALM      29.92F
LONE ROCK      NOT AVBL
PLATTEVILLE    CLEAR     71  55  57 CALM      29.94S
FORT MC COY    CLEAR     74  56  53 W3        29.92S
VIROQUA        FAIR      71  58  63 SW5       29.94S
WIS DELLS      CLEAR     71  57  62 SW3       29.92S
$$

...ELSEWHERE IN WISCONSIN...


CITY           SKY/WX    TMP DP  RH WIND       PRES   REMARKS
MILWAUKEE      MOCLDY    65  53  65 SE5       29.92S
MADISON        CLEAR     71  54  54 CALM      29.92S
GREEN BAY      MOCLDY    72  56  57 S3        29.89S
EAU CLAIRE     NOT AVBL
BLACK RVR FLS  FAIR      73  58  59 CALM      29.91S
MEDFORD        CLEAR     69  58  67 W6        29.92S
WAUSAU         MOCLDY    73  55  53 W8        29.89F
WIS RAPIDS     CLEAR     72  56  57 W5        29.92S
MARSHFIELD     PTCLDY    71  56  58 W5        29.92R
RICE LAKE      MOCLDY    73  60  63 SW3       29.91S
$$

...NORTHEAST IOWA...


CITY           SKY/WX    TMP DP  RH WIND       PRES   REMARKS
DECORAH          N/A    N/A N/A N/A MISG        N/A
MASON CITY     CLEAR     72  59  63 W5        29.96S
CHARLES CITY   CLEAR     73  64  73 CALM      29.95S
OELWEIN        CLEAR     72  61  68 CALM      29.95S
$$

...ELSEWHERE IN IOWA...


CITY           SKY/WX    TMP DP  RH WIND       PRES   REMARKS
DES MOINES     PTCLDY    75  58  55 S6        29.94S
IOWA CITY      CLEAR     74  54  49 W3        29.94F
FORT DODGE     CLEAR     72  55  56 CALM      29.96S
$$

...NORTHERN ILLINOIS...


CITY           SKY/WX    TMP DP  RH WIND       PRES   REMARKS
CHICAGO-OHARE  MOCLDY    70  49  47 E7        29.91S
CHICAGO-MIDWAY MOCLDY    71  53  52 E8        29.92S
MOLINE         CLEAR     73  61  65 CALM      29.92S
ROCKFORD       PTCLDY    73  58  59 W5        29.93F
PEORIA         CLEAR     76  59  55 N3        29.91S
$$

NOTE: "FAIR" INDICATES FEW OR NO CLOUDS BELOW 12,000 FEET WITH NO
SIGNIFICANT WEATHER AND/OR OBSTRUCTIONS TO VISIBILITY. WIND
SPEEDS ARE IN MILES-PER-HOUR.



USA.gov is the U.S. government's official web portal to all federal, state and local government web resources and services.